Starlink 32734

operational
NORAD ID: 62476 Int'l Des: 2024-254 Owner: SPXS Country: US Constellation: starlink
LEOCIRCULAR

Starlink 32734について

説明を読み込み中...

リアルタイム位置

3D地球を読み込み中...

次回通過

高度履歴

Altitude vs Time

uPlot chart will show altitude changes over time

軌道要素

1 62476U 24254Q 25300.57828051 .00024580 00000-0 89946-3 0 9996
2 62476 43.0022 48.2578 0000840 261.4491 98.6265 15.27591926 47296
Epoch: Oct 27, 2025 • Age: 25 hours

現在のステータス

高度 495.6 km
速度 7.62 km/s
衛星直下点 -43.11°S, 59.48°E
打ち上げ日 Dec 31, 2024
運用期間 0.8 years
タイプ internet

技術仕様

分類 Payload
質量 730.00 kg
乾燥質量 700.00 kg
総質量 730.00 kg
長さ 0.30 m
直径 4.10 m
スパン 29.00 m
形状 Box + pan
製造者 SPXS
バスタイプ Starlink V2M
フェーズステータス In Orbit
所有者/国 SPXS/US

大規模コンステレーション

Loading constellations...